Year,Month,Day,Hour,Minute,Value (Times are PST for temperature in C)
2017,05,22,00,00,12.80
2017,05,22,00,01,12.70
2017,05,22,00,02,12.70
2017,05,22,00,03,12.70
2017,05,22,00,04,12.70
2017,05,22,00,05,12.70
2017,05,22,00,06,12.70
2017,05,22,00,07,12.70
2017,05,22,00,08,12.70
2017,05,22,00,09,12.70
2017,05,22,00,10,12.70
2017,05,22,00,11,12.70
2017,05,22,00,12,12.70
2017,05,22,00,13,12.70
2017,05,22,00,14,12.70
2017,05,22,00,15,12.80
2017,05,22,00,16,12.80
2017,05,22,00,17,12.80
2017,05,22,00,18,12.80
2017,05,22,00,19,12.80
2017,05,22,00,20,12.80
2017,05,22,00,21,12.70
2017,05,22,00,22,12.70
2017,05,22,00,23,12.70
2017,05,22,00,24,12.70
2017,05,22,00,25,12.70
2017,05,22,00,26,12.70
2017,05,22,00,27,12.60
2017,05,22,00,28,12.60
2017,05,22,00,29,12.60
2017,05,22,00,30,12.60
2017,05,22,00,31,12.60
2017,05,22,00,32,12.60
2017,05,22,00,33,12.60
2017,05,22,00,34,12.50
2017,05,22,00,35,12.50
2017,05,22,00,36,12.50
2017,05,22,00,37,12.40
2017,05,22,00,38,12.40
2017,05,22,00,39,12.40
2017,05,22,00,40,12.40
2017,05,22,00,41,12.40
2017,05,22,00,42,12.40
2017,05,22,00,43,12.40
2017,05,22,00,44,12.30
2017,05,22,00,45,12.30
2017,05,22,00,46,12.30
2017,05,22,00,47,12.30
2017,05,22,00,48,12.30
2017,05,22,00,49,12.30
2017,05,22,00,50,12.40
2017,05,22,00,51,12.40
2017,05,22,00,52,12.40
2017,05,22,00,53,12.40
2017,05,22,00,54,12.40
2017,05,22,00,55,12.40
2017,05,22,00,56,12.40
2017,05,22,00,57,12.40
2017,05,22,00,58,12.40
2017,05,22,00,59,12.40
2017,05,22,01,00,12.50
2017,05,22,01,01,12.50
2017,05,22,01,02,12.50
2017,05,22,01,03,12.50
2017,05,22,01,04,12.50
2017,05,22,01,05,12.50
2017,05,22,01,06,12.50
2017,05,22,01,07,12.50
2017,05,22,01,08,12.50
2017,05,22,01,09,12.40
2017,05,22,01,10,12.40
2017,05,22,01,11,12.40
2017,05,22,01,12,12.30
2017,05,22,01,13,12.30
2017,05,22,01,14,12.30
2017,05,22,01,15,12.30
2017,05,22,01,16,12.30
2017,05,22,01,17,12.20
2017,05,22,01,18,12.20
2017,05,22,01,19,12.20
2017,05,22,01,20,12.20
2017,05,22,01,21,12.20
2017,05,22,01,22,12.20
2017,05,22,01,23,12.20
2017,05,22,01,24,12.10
2017,05,22,01,25,12.10
2017,05,22,01,26,12.10
2017,05,22,01,27,12.10
2017,05,22,01,28,12.10
2017,05,22,01,29,12.00
2017,05,22,01,30,12.00
2017,05,22,01,31,12.00
2017,05,22,01,32,12.00
2017,05,22,01,33,12.00
2017,05,22,01,34,12.00
2017,05,22,01,35,12.00
2017,05,22,01,36,11.90
2017,05,22,01,37,11.90
2017,05,22,01,38,11.90
2017,05,22,01,39,11.90
2017,05,22,01,40,11.90
2017,05,22,01,41,11.90
2017,05,22,01,42,11.90
2017,05,22,01,43,11.90
2017,05,22,01,44,11.90
2017,05,22,01,45,11.90
2017,05,22,01,46,11.90
2017,05,22,01,47,11.90
2017,05,22,01,48,11.90
2017,05,22,01,49,11.90
2017,05,22,01,50,11.90
2017,05,22,01,51,11.90
2017,05,22,01,52,11.90
2017,05,22,01,53,11.90
2017,05,22,01,54,11.90
2017,05,22,01,55,11.90
2017,05,22,01,56,11.90
2017,05,22,01,57,11.90
2017,05,22,01,58,11.90
2017,05,22,01,59,11.90
2017,05,22,02,00,11.90
2017,05,22,02,01,11.90
2017,05,22,02,02,11.90
2017,05,22,02,03,11.90
2017,05,22,02,04,11.80
2017,05,22,02,05,11.80
2017,05,22,02,06,11.80
2017,05,22,02,07,11.80
2017,05,22,02,08,11.80
2017,05,22,02,09,11.80
2017,05,22,02,10,11.90
2017,05,22,02,11,11.90
2017,05,22,02,12,11.90
2017,05,22,02,13,12.00
2017,05,22,02,14,12.00
2017,05,22,02,15,12.00
2017,05,22,02,16,12.00
2017,05,22,02,17,12.00
2017,05,22,02,18,12.00
2017,05,22,02,19,12.00
2017,05,22,02,20,12.00
2017,05,22,02,21,12.00
2017,05,22,02,22,11.90
2017,05,22,02,23,11.90
2017,05,22,02,24,11.90
2017,05,22,02,25,11.90
2017,05,22,02,26,11.90
2017,05,22,02,27,11.90
2017,05,22,02,28,11.90
2017,05,22,02,29,11.90
2017,05,22,02,30,11.90
2017,05,22,02,31,11.80
2017,05,22,02,32,11.80
2017,05,22,02,33,11.80
2017,05,22,02,34,11.80
2017,05,22,02,35,11.80
2017,05,22,02,36,11.80
2017,05,22,02,37,11.90
2017,05,22,02,38,11.90
2017,05,22,02,39,11.90
2017,05,22,02,40,11.90
2017,05,22,02,41,11.90
2017,05,22,02,42,11.90
2017,05,22,02,43,11.90
2017,05,22,02,44,12.00
2017,05,22,02,45,12.00
2017,05,22,02,46,12.00
2017,05,22,02,47,12.00
2017,05,22,02,48,11.90
2017,05,22,02,49,11.90
2017,05,22,02,50,11.90
2017,05,22,02,51,11.90
2017,05,22,02,52,11.90
2017,05,22,02,53,11.90
2017,05,22,02,54,11.80
2017,05,22,02,55,11.80
2017,05,22,02,56,11.80
2017,05,22,02,57,11.80
2017,05,22,02,58,11.80
2017,05,22,02,59,11.80
2017,05,22,03,00,11.80
2017,05,22,03,01,11.80
2017,05,22,03,02,11.80
2017,05,22,03,03,11.80
2017,05,22,03,04,11.80
2017,05,22,03,05,11.80
2017,05,22,03,06,11.80
2017,05,22,03,07,11.80
2017,05,22,03,08,11.80
2017,05,22,03,09,11.80
2017,05,22,03,10,11.80
2017,05,22,03,11,11.80
2017,05,22,03,12,11.80
2017,05,22,03,13,11.80
2017,05,22,03,14,11.80
2017,05,22,03,15,11.90
2017,05,22,03,16,11.90
2017,05,22,03,17,11.90
2017,05,22,03,18,11.90
2017,05,22,03,19,11.90
2017,05,22,03,20,11.90
2017,05,22,03,21,11.90
2017,05,22,03,22,11.90
2017,05,22,03,23,11.90
2017,05,22,03,24,11.90
2017,05,22,03,25,11.80
2017,05,22,03,26,11.80
2017,05,22,03,27,11.80
2017,05,22,03,28,11.80
2017,05,22,03,29,11.80
2017,05,22,03,30,11.80
2017,05,22,03,31,11.80
2017,05,22,03,32,11.80
2017,05,22,03,33,11.80
2017,05,22,03,34,11.80
2017,05,22,03,35,11.80
2017,05,22,03,36,11.80
2017,05,22,03,37,11.90
2017,05,22,03,38,11.90
2017,05,22,03,39,11.90
2017,05,22,03,40,11.90
2017,05,22,03,41,11.90
2017,05,22,03,42,12.00
2017,05,22,03,43,12.00
2017,05,22,03,44,12.00
2017,05,22,03,45,12.00
2017,05,22,03,46,12.00
2017,05,22,03,47,12.00
2017,05,22,03,48,12.10
2017,05,22,03,49,12.10
2017,05,22,03,50,12.10
2017,05,22,03,51,12.10
2017,05,22,03,52,12.10
2017,05,22,03,53,12.10
2017,05,22,03,54,12.10
2017,05,22,03,55,12.10
2017,05,22,03,56,12.10
2017,05,22,03,57,12.10
2017,05,22,03,58,12.00
2017,05,22,03,59,12.00
2017,05,22,04,00,12.00
2017,05,22,04,01,12.00
2017,05,22,04,02,12.00
2017,05,22,04,03,12.00
2017,05,22,04,04,12.00
2017,05,22,04,05,12.00
2017,05,22,04,06,12.00
2017,05,22,04,07,12.10
2017,05,22,04,08,12.10
2017,05,22,04,09,12.10
2017,05,22,04,10,12.10
2017,05,22,04,11,12.10
2017,05,22,04,12,12.20
2017,05,22,04,13,12.20
2017,05,22,04,14,12.20
2017,05,22,04,15,12.20
2017,05,22,04,16,12.30
2017,05,22,04,17,12.30
2017,05,22,04,18,12.30
2017,05,22,04,19,12.30
2017,05,22,04,20,12.30
2017,05,22,04,21,12.30
2017,05,22,04,22,12.30
2017,05,22,04,23,12.40
2017,05,22,04,24,12.40
2017,05,22,04,25,12.40
2017,05,22,04,26,12.50
2017,05,22,04,27,12.50
2017,05,22,04,28,12.50
2017,05,22,04,29,12.60
2017,05,22,04,30,12.60
2017,05,22,04,31,12.60
2017,05,22,04,32,12.60
2017,05,22,04,33,12.60
2017,05,22,04,34,12.60
2017,05,22,04,35,12.60
2017,05,22,04,36,12.60
2017,05,22,04,37,12.70
2017,05,22,04,38,12.70
2017,05,22,04,39,12.70
2017,05,22,04,40,12.70
2017,05,22,04,41,12.80
2017,05,22,04,42,12.80
2017,05,22,04,43,12.80
2017,05,22,04,44,12.90
2017,05,22,04,45,13.00
2017,05,22,04,46,13.00
2017,05,22,04,47,13.10
2017,05,22,04,48,13.10
2017,05,22,04,49,13.20
2017,05,22,04,50,13.20
2017,05,22,04,51,13.30
2017,05,22,04,52,13.40
2017,05,22,04,53,13.40
2017,05,22,04,54,13.40
2017,05,22,04,55,13.50
2017,05,22,04,56,13.50
2017,05,22,04,57,13.50
2017,05,22,04,58,13.50
2017,05,22,04,59,13.50
2017,05,22,05,00,13.50
2017,05,22,05,01,13.50
2017,05,22,05,02,13.60
2017,05,22,05,03,13.60
2017,05,22,05,04,13.60
2017,05,22,05,05,13.60
2017,05,22,05,06,13.60
2017,05,22,05,07,13.60
2017,05,22,05,08,13.60
2017,05,22,05,09,13.60
2017,05,22,05,10,13.60
2017,05,22,05,11,13.60
2017,05,22,05,12,13.60
2017,05,22,05,13,13.60
2017,05,22,05,14,13.60
2017,05,22,05,15,13.60
2017,05,22,05,16,13.60
2017,05,22,05,17,13.60
2017,05,22,05,18,13.60
2017,05,22,05,19,13.60
2017,05,22,05,20,13.60
2017,05,22,05,21,13.60
2017,05,22,05,22,13.60
2017,05,22,05,23,13.60
2017,05,22,05,24,13.60
2017,05,22,05,25,13.60
2017,05,22,05,26,13.50
2017,05,22,05,27,13.50
2017,05,22,05,28,13.50
2017,05,22,05,29,13.60
2017,05,22,05,30,13.60
2017,05,22,05,31,13.60
2017,05,22,05,32,13.70
2017,05,22,05,33,13.70
2017,05,22,05,34,13.70
2017,05,22,05,35,13.70
2017,05,22,05,36,13.70
2017,05,22,05,37,13.70
2017,05,22,05,38,13.70
2017,05,22,05,39,13.70
2017,05,22,05,40,13.70
2017,05,22,05,41,13.70
2017,05,22,05,42,13.80
2017,05,22,05,43,13.90
2017,05,22,05,44,14.00
2017,05,22,05,45,14.10
2017,05,22,05,46,14.10
2017,05,22,05,47,14.20
2017,05,22,05,48,14.20
2017,05,22,05,49,14.30
2017,05,22,05,50,14.30
2017,05,22,05,51,14.30
2017,05,22,05,52,14.40
2017,05,22,05,53,14.40
2017,05,22,05,54,14.40
2017,05,22,05,55,14.40
2017,05,22,05,56,14.30
2017,05,22,05,57,14.40
2017,05,22,05,58,14.50
2017,05,22,05,59,14.50
2017,05,22,06,00,14.60
2017,05,22,06,01,14.60
2017,05,22,06,02,14.60
2017,05,22,06,03,14.60
2017,05,22,06,04,14.60
2017,05,22,06,05,14.60
2017,05,22,06,06,14.60
2017,05,22,06,07,14.50
2017,05,22,06,08,14.50
2017,05,22,06,09,14.50
2017,05,22,06,10,14.40
2017,05,22,06,11,14.40
2017,05,22,06,12,14.40
2017,05,22,06,13,14.40
2017,05,22,06,14,14.40
2017,05,22,06,15,14.40
2017,05,22,06,16,14.40
2017,05,22,06,17,14.40
2017,05,22,06,18,14.40
2017,05,22,06,19,14.40
2017,05,22,06,20,14.40
2017,05,22,06,21,14.50
2017,05,22,06,22,14.50
2017,05,22,06,23,14.50
2017,05,22,06,24,14.60
2017,05,22,06,25,14.60
2017,05,22,06,26,14.60
2017,05,22,06,27,14.60
2017,05,22,06,28,14.70
2017,05,22,06,29,14.70
2017,05,22,06,30,14.80
2017,05,22,06,31,14.80
2017,05,22,06,32,14.90
2017,05,22,06,33,15.00
2017,05,22,06,34,15.00
2017,05,22,06,35,15.00
2017,05,22,06,36,15.00
2017,05,22,06,37,15.10
2017,05,22,06,38,15.20
2017,05,22,06,39,15.30
2017,05,22,06,40,15.30
2017,05,22,06,41,15.40
2017,05,22,06,42,15.40
2017,05,22,06,43,15.40
2017,05,22,06,44,15.50
2017,05,22,06,45,15.50
2017,05,22,06,46,15.60
2017,05,22,06,47,15.70
2017,05,22,06,48,15.80
2017,05,22,06,49,15.90
2017,05,22,06,50,15.90
2017,05,22,06,51,16.00
2017,05,22,06,52,16.00
2017,05,22,06,53,16.10
2017,05,22,06,54,16.20
2017,05,22,06,55,16.20
2017,05,22,06,56,16.20
2017,05,22,06,57,16.30
2017,05,22,06,58,16.30
2017,05,22,06,59,16.30
2017,05,22,07,00,16.40
2017,05,22,07,01,16.50
2017,05,22,07,02,16.50
2017,05,22,07,03,16.60
2017,05,22,07,04,16.70
2017,05,22,07,05,16.70
2017,05,22,07,06,16.80
2017,05,22,07,07,16.80
2017,05,22,07,08,16.80
2017,05,22,07,09,16.90
2017,05,22,07,10,16.90
2017,05,22,07,11,16.90
2017,05,22,07,12,16.90
2017,05,22,07,13,16.90
2017,05,22,07,14,16.90
2017,05,22,07,15,17.00
2017,05,22,07,16,17.00
2017,05,22,07,17,17.00
2017,05,22,07,18,17.00
2017,05,22,07,19,17.00
2017,05,22,07,20,17.10
2017,05,22,07,21,17.10
2017,05,22,07,22,17.10
2017,05,22,07,23,17.10
2017,05,22,07,24,17.10
2017,05,22,07,25,17.10
2017,05,22,07,26,17.20
2017,05,22,07,27,17.20
2017,05,22,07,28,17.30
2017,05,22,07,29,17.30
2017,05,22,07,30,17.40
2017,05,22,07,31,17.50
2017,05,22,07,32,17.60
2017,05,22,07,33,17.60
2017,05,22,07,34,17.70
2017,05,22,07,35,17.70
2017,05,22,07,36,17.80
2017,05,22,07,37,17.90
2017,05,22,07,38,18.00
2017,05,22,07,39,18.10
2017,05,22,07,40,18.20
2017,05,22,07,41,18.30
2017,05,22,07,42,18.40
2017,05,22,07,43,18.50
2017,05,22,07,44,18.60
2017,05,22,07,45,18.60
2017,05,22,07,46,18.70
2017,05,22,07,47,18.80
2017,05,22,07,48,18.80
2017,05,22,07,49,18.80
2017,05,22,07,50,18.90
2017,05,22,07,51,18.90
2017,05,22,07,52,18.90
2017,05,22,07,53,19.00
2017,05,22,07,54,19.00
2017,05,22,07,55,19.10
2017,05,22,07,56,19.10
2017,05,22,07,57,19.20
2017,05,22,07,58,19.30
2017,05,22,07,59,19.30
2017,05,22,08,00,19.40
2017,05,22,08,01,19.40
2017,05,22,08,02,19.50
2017,05,22,08,03,19.50
2017,05,22,08,04,19.60
2017,05,22,08,05,19.70
2017,05,22,08,06,19.70
2017,05,22,08,07,19.70
2017,05,22,08,08,19.70
2017,05,22,08,09,19.70
2017,05,22,08,10,19.70
2017,05,22,08,11,19.70
2017,05,22,08,12,19.80
2017,05,22,08,13,19.90
2017,05,22,08,14,20.00
2017,05,22,08,15,20.10
2017,05,22,08,16,20.20
2017,05,22,08,17,20.20
2017,05,22,08,18,20.20
2017,05,22,08,19,20.30
2017,05,22,08,20,20.30
2017,05,22,08,21,20.30
2017,05,22,08,22,20.40
2017,05,22,08,23,20.50
2017,05,22,08,24,20.50
2017,05,22,08,25,20.60
2017,05,22,08,26,20.60
2017,05,22,08,27,20.60
2017,05,22,08,28,20.60
2017,05,22,08,29,20.50
2017,05,22,08,30,20.50
2017,05,22,08,31,20.50
2017,05,22,08,32,20.40
2017,05,22,08,33,20.40
2017,05,22,08,34,20.30
2017,05,22,08,35,20.30
2017,05,22,08,36,20.30
2017,05,22,08,37,20.30
2017,05,22,08,38,20.20
2017,05,22,08,39,20.20
2017,05,22,08,40,20.20
2017,05,22,08,41,20.10
2017,05,22,08,42,20.10
2017,05,22,08,43,20.10
2017,05,22,08,44,20.10
2017,05,22,08,45,20.10
2017,05,22,08,46,20.20
2017,05,22,08,47,20.20
2017,05,22,08,48,20.20
2017,05,22,08,49,20.20
2017,05,22,08,50,20.20
2017,05,22,08,51,20.30
2017,05,22,08,52,20.30
2017,05,22,08,53,20.40
2017,05,22,08,54,20.40
2017,05,22,08,55,20.50
2017,05,22,08,56,20.50
2017,05,22,08,57,20.60
2017,05,22,08,58,20.70
2017,05,22,08,59,20.80
2017,05,22,09,00,20.80
2017,05,22,09,01,20.80
2017,05,22,09,02,20.80
2017,05,22,09,03,20.90
2017,05,22,09,04,20.90
2017,05,22,09,05,20.90
2017,05,22,09,06,20.90
2017,05,22,09,07,20.90
2017,05,22,09,08,20.90
2017,05,22,09,09,20.90
2017,05,22,09,10,20.90
2017,05,22,09,11,20.90
2017,05,22,09,12,20.80
2017,05,22,09,13,20.80
2017,05,22,09,14,20.70
2017,05,22,09,15,20.80
2017,05,22,09,16,20.80
2017,05,22,09,17,20.80
2017,05,22,09,18,20.90
2017,05,22,09,19,21.00
2017,05,22,09,20,21.10
2017,05,22,09,21,21.20
2017,05,22,09,22,21.20
2017,05,22,09,23,21.30
2017,05,22,09,24,21.30
2017,05,22,09,25,21.30
2017,05,22,09,26,21.40
2017,05,22,09,27,21.40
2017,05,22,09,28,21.40
2017,05,22,09,29,21.50
2017,05,22,09,30,21.60
2017,05,22,09,31,21.70
2017,05,22,09,32,21.70
2017,05,22,09,33,21.70
2017,05,22,09,34,21.70
2017,05,22,09,35,21.70
2017,05,22,09,36,21.70
2017,05,22,09,37,21.60
2017,05,22,09,38,21.60
2017,05,22,09,39,21.60
2017,05,22,09,40,21.60
2017,05,22,09,41,21.60
2017,05,22,09,42,21.60
2017,05,22,09,43,21.60
2017,05,22,09,44,21.70
2017,05,22,09,45,21.80
2017,05,22,09,46,21.80
2017,05,22,09,47,21.80
2017,05,22,09,48,21.80
2017,05,22,09,49,21.90
2017,05,22,09,50,21.90
2017,05,22,09,51,22.00
2017,05,22,09,52,22.10
2017,05,22,09,53,22.10
2017,05,22,09,54,22.00
2017,05,22,09,55,22.00
2017,05,22,09,56,21.90
2017,05,22,09,57,22.00
2017,05,22,09,58,22.00
2017,05,22,09,59,21.90
2017,05,22,10,00,21.90
2017,05,22,10,01,21.90
2017,05,22,10,02,21.80
2017,05,22,10,03,21.80
2017,05,22,10,04,21.80
2017,05,22,10,05,21.90
2017,05,22,10,06,21.90
2017,05,22,10,07,21.90
2017,05,22,10,08,22.00
2017,05,22,10,09,22.00
2017,05,22,10,10,22.10
2017,05,22,10,11,22.10
2017,05,22,10,12,22.10
2017,05,22,10,13,22.10
2017,05,22,10,14,22.10
2017,05,22,10,15,22.00
2017,05,22,10,16,22.00
2017,05,22,10,17,21.90
2017,05,22,10,18,21.90
2017,05,22,10,19,22.00
2017,05,22,10,20,22.00
2017,05,22,10,21,22.00
2017,05,22,10,22,22.10
2017,05,22,10,23,22.20
2017,05,22,10,24,22.20
2017,05,22,10,25,22.30
2017,05,22,10,26,22.40
2017,05,22,10,27,22.40
2017,05,22,10,28,22.40
2017,05,22,10,29,22.40
2017,05,22,10,30,22.40
2017,05,22,10,31,22.40
2017,05,22,10,32,22.40
2017,05,22,10,33,22.40
2017,05,22,10,34,22.40
2017,05,22,10,35,22.40
2017,05,22,10,36,22.40
2017,05,22,10,37,22.40
2017,05,22,10,38,22.50
2017,05,22,10,39,22.50
2017,05,22,10,40,22.60
2017,05,22,10,41,22.60
2017,05,22,10,42,22.70
2017,05,22,10,43,22.70
2017,05,22,10,44,22.80
2017,05,22,10,45,22.90
2017,05,22,10,46,23.00
2017,05,22,10,47,22.90
2017,05,22,10,48,22.90
2017,05,22,10,49,22.90
2017,05,22,10,50,22.90
2017,05,22,10,51,23.00
2017,05,22,10,52,23.10
2017,05,22,10,53,23.10
2017,05,22,10,54,23.20
2017,05,22,10,55,23.20
2017,05,22,10,56,23.20
2017,05,22,10,57,23.30
2017,05,22,10,58,23.30
2017,05,22,10,59,23.30
2017,05,22,11,00,23.20
2017,05,22,11,01,23.20
2017,05,22,11,02,23.20
2017,05,22,11,03,23.20
2017,05,22,11,04,23.20
2017,05,22,11,05,23.30
2017,05,22,11,06,23.30
2017,05,22,11,07,23.40
2017,05,22,11,08,23.40
2017,05,22,11,09,23.40
2017,05,22,11,10,23.40
2017,05,22,11,11,23.50
2017,05,22,11,12,23.50
2017,05,22,11,13,23.50
2017,05,22,11,14,23.50
2017,05,22,11,15,23.50
2017,05,22,11,16,23.40
2017,05,22,11,17,23.30
2017,05,22,11,18,23.20
2017,05,22,11,19,23.10
2017,05,22,11,20,23.00
2017,05,22,11,21,22.90
2017,05,22,11,22,22.80
2017,05,22,11,23,22.80
2017,05,22,11,24,22.70
2017,05,22,11,25,22.80
2017,05,22,11,26,22.80
2017,05,22,11,27,22.80
2017,05,22,11,28,22.90
2017,05,22,11,29,23.00
2017,05,22,11,30,23.10
2017,05,22,11,31,23.30
2017,05,22,11,32,23.40
2017,05,22,11,33,23.30
2017,05,22,11,34,23.10
2017,05,22,11,35,23.10
2017,05,22,11,36,23.10
2017,05,22,11,37,23.20
2017,05,22,11,38,23.20
2017,05,22,11,39,23.10
2017,05,22,11,40,23.00
2017,05,22,11,41,23.00
2017,05,22,11,42,23.00
2017,05,22,11,43,22.90
2017,05,22,11,44,22.80
2017,05,22,11,45,22.60
2017,05,22,11,46,22.40
2017,05,22,11,47,22.30
2017,05,22,11,48,22.20
2017,05,22,11,49,22.30
2017,05,22,11,50,22.30
2017,05,22,11,51,22.30
2017,05,22,11,52,22.40
2017,05,22,11,53,22.50
2017,05,22,11,54,22.50
2017,05,22,11,55,22.50
2017,05,22,11,56,22.50
2017,05,22,11,57,22.50
2017,05,22,11,58,22.60
2017,05,22,11,59,22.60
2017,05,22,12,00,22.60
2017,05,22,12,01,22.60
2017,05,22,12,02,22.70
2017,05,22,12,03,22.80
2017,05,22,12,04,22.90
2017,05,22,12,05,23.10
2017,05,22,12,06,23.20
2017,05,22,12,07,23.20
2017,05,22,12,08,23.20
2017,05,22,12,09,23.20
2017,05,22,12,10,23.30
2017,05,22,12,11,23.30
2017,05,22,12,12,23.30
2017,05,22,12,13,23.40
2017,05,22,12,14,23.40
2017,05,22,12,15,23.40
2017,05,22,12,16,23.40
2017,05,22,12,17,23.50
2017,05,22,12,18,23.50
2017,05,22,12,19,23.60
2017,05,22,12,20,23.70
2017,05,22,12,21,23.70
2017,05,22,12,22,23.70
2017,05,22,12,23,23.80
2017,05,22,12,24,23.80
2017,05,22,12,25,23.90
2017,05,22,12,26,23.90
2017,05,22,12,27,24.00
2017,05,22,12,28,24.00
2017,05,22,12,29,24.00
2017,05,22,12,30,23.90
2017,05,22,12,31,23.80
2017,05,22,12,32,23.80
2017,05,22,12,33,23.70
2017,05,22,12,34,23.60
2017,05,22,12,35,23.50
2017,05,22,12,36,23.40
2017,05,22,12,37,23.40
2017,05,22,12,38,23.30
2017,05,22,12,39,23.40
2017,05,22,12,40,23.50
2017,05,22,12,41,23.70
2017,05,22,12,42,23.80
2017,05,22,12,43,23.70
2017,05,22,12,44,23.60
2017,05,22,12,45,23.40
2017,05,22,12,46,23.30
2017,05,22,12,47,23.30
2017,05,22,12,48,23.20
2017,05,22,12,49,23.10
2017,05,22,12,50,23.10
2017,05,22,12,51,23.00
2017,05,22,12,52,23.00
2017,05,22,12,53,22.90
2017,05,22,12,54,22.80
2017,05,22,12,55,22.80
2017,05,22,12,56,22.80
2017,05,22,12,57,22.80
2017,05,22,12,58,22.80
2017,05,22,12,59,22.70
2017,05,22,13,00,22.60
2017,05,22,13,01,22.60
2017,05,22,13,02,22.50
2017,05,22,13,03,22.40
2017,05,22,13,04,22.50
2017,05,22,13,05,22.50
2017,05,22,13,06,22.70
2017,05,22,13,07,22.80
2017,05,22,13,08,23.00
2017,05,22,13,09,23.10
2017,05,22,13,10,23.30
2017,05,22,13,11,23.40
2017,05,22,13,12,23.50
2017,05,22,13,13,23.50
2017,05,22,13,14,23.50
2017,05,22,13,15,23.50
2017,05,22,13,16,23.50
2017,05,22,13,17,23.50
2017,05,22,13,18,23.60
2017,05,22,13,19,23.60
2017,05,22,13,20,23.60
2017,05,22,13,21,23.60
2017,05,22,13,22,23.60
2017,05,22,13,23,23.70
2017,05,22,13,24,23.70
2017,05,22,13,25,23.80
2017,05,22,13,26,23.80
2017,05,22,13,27,23.90
2017,05,22,13,28,24.00
2017,05,22,13,29,24.10
2017,05,22,13,30,24.10
2017,05,22,13,31,24.10
2017,05,22,13,32,24.20
2017,05,22,13,33,24.10
2017,05,22,13,34,24.10
2017,05,22,13,35,24.00
2017,05,22,13,36,24.10
2017,05,22,13,37,24.10
2017,05,22,13,38,24.10
2017,05,22,13,39,24.10
2017,05,22,13,40,24.10
2017,05,22,13,41,24.10
2017,05,22,13,42,24.10
2017,05,22,13,43,24.20
2017,05,22,13,44,24.20
2017,05,22,13,45,24.30
2017,05,22,13,46,24.40
2017,05,22,13,47,24.50
2017,05,22,13,48,24.60
2017,05,22,13,49,24.70
2017,05,22,13,50,24.80
2017,05,22,13,51,24.80
2017,05,22,13,52,24.80
2017,05,22,13,53,24.70
2017,05,22,13,54,24.60
2017,05,22,13,55,24.50
2017,05,22,13,56,24.40
2017,05,22,13,57,24.40
2017,05,22,13,58,24.40
2017,05,22,13,59,24.50
2017,05,22,14,00,24.60
2017,05,22,14,01,24.60
2017,05,22,14,02,24.60
2017,05,22,14,03,24.50
2017,05,22,14,04,24.30
2017,05,22,14,05,24.20
2017,05,22,14,06,24.10
2017,05,22,14,07,23.90
2017,05,22,14,08,23.90
2017,05,22,14,09,23.80
2017,05,22,14,10,23.80
2017,05,22,14,11,23.80
2017,05,22,14,12,23.80
2017,05,22,14,13,23.90
2017,05,22,14,14,24.00
2017,05,22,14,15,24.00
2017,05,22,14,16,24.10
2017,05,22,14,17,24.10
2017,05,22,14,18,24.10
2017,05,22,14,19,24.20
2017,05,22,14,20,24.20
2017,05,22,14,21,24.20
2017,05,22,14,22,24.10
2017,05,22,14,23,24.10
2017,05,22,14,24,24.10
2017,05,22,14,25,24.10
2017,05,22,14,26,24.10
2017,05,22,14,27,24.10
2017,05,22,14,28,24.20
2017,05,22,14,29,24.20
2017,05,22,14,30,24.20
2017,05,22,14,31,24.30
2017,05,22,14,32,24.30
2017,05,22,14,33,24.30
2017,05,22,14,34,24.30
2017,05,22,14,35,24.30
2017,05,22,14,36,24.30
2017,05,22,14,37,24.30
2017,05,22,14,38,24.10
2017,05,22,14,39,24.00
2017,05,22,14,40,23.90
2017,05,22,14,41,23.80
2017,05,22,14,42,23.80
2017,05,22,14,43,23.80
2017,05,22,14,44,23.70
2017,05,22,14,45,23.70
2017,05,22,14,46,23.70
2017,05,22,14,47,23.70
2017,05,22,14,48,23.80
2017,05,22,14,49,23.80
2017,05,22,14,50,23.90
2017,05,22,14,51,24.00
2017,05,22,14,52,24.00
2017,05,22,14,53,24.10
2017,05,22,14,54,24.20
2017,05,22,14,55,24.30
2017,05,22,14,56,24.40
2017,05,22,14,57,24.50
2017,05,22,14,58,24.50
2017,05,22,14,59,24.60
2017,05,22,15,00,24.70
2017,05,22,15,01,24.80
2017,05,22,15,02,24.90
2017,05,22,15,03,24.80
2017,05,22,15,04,24.80
2017,05,22,15,05,24.70
2017,05,22,15,06,24.70
2017,05,22,15,07,24.70
2017,05,22,15,08,24.80
2017,05,22,15,09,25.00
2017,05,22,15,10,25.10
2017,05,22,15,11,25.20
2017,05,22,15,12,25.20
2017,05,22,15,13,25.10
2017,05,22,15,14,24.90
2017,05,22,15,15,24.80
2017,05,22,15,16,24.70
2017,05,22,15,17,24.60
2017,05,22,15,18,24.60
2017,05,22,15,19,24.50
2017,05,22,15,20,24.60
2017,05,22,15,21,24.70
2017,05,22,15,22,24.70
2017,05,22,15,23,24.70
2017,05,22,15,24,24.70
2017,05,22,15,25,24.80
2017,05,22,15,26,24.80
2017,05,22,15,27,24.80
2017,05,22,15,28,24.90
2017,05,22,15,29,24.90
2017,05,22,15,30,25.00
2017,05,22,15,31,25.00
2017,05,22,15,32,24.90
2017,05,22,15,33,24.80
2017,05,22,15,34,24.80
2017,05,22,15,35,24.80
2017,05,22,15,36,24.80
2017,05,22,15,37,24.80
2017,05,22,15,38,24.80
2017,05,22,15,39,24.80
2017,05,22,15,40,24.90
2017,05,22,15,41,24.90
2017,05,22,15,42,25.00
2017,05,22,15,43,25.00
2017,05,22,15,44,25.10
2017,05,22,15,45,25.20
2017,05,22,15,46,25.40
2017,05,22,15,47,25.30
2017,05,22,15,48,25.20
2017,05,22,15,49,25.10
2017,05,22,15,50,25.20
2017,05,22,15,51,25.30
2017,05,22,15,52,25.30
2017,05,22,15,53,25.40
2017,05,22,15,54,25.40
2017,05,22,15,55,25.50
2017,05,22,15,56,25.60
2017,05,22,15,57,25.70
2017,05,22,15,58,25.70
2017,05,22,15,59,25.80
2017,05,22,16,00,25.90
2017,05,22,16,01,25.90
2017,05,22,16,02,25.90
2017,05,22,16,03,25.90
2017,05,22,16,04,26.00
2017,05,22,16,05,26.00
2017,05,22,16,06,26.00
2017,05,22,16,07,26.10
2017,05,22,16,08,26.20
2017,05,22,16,09,26.30
2017,05,22,16,10,26.30
2017,05,22,16,11,26.20
2017,05,22,16,12,26.10
2017,05,22,16,13,26.10
2017,05,22,16,14,26.10
2017,05,22,16,15,26.20
2017,05,22,16,16,26.20
2017,05,22,16,17,26.20
2017,05,22,16,18,26.00
2017,05,22,16,19,26.00
2017,05,22,16,20,25.90
2017,05,22,16,21,25.90
2017,05,22,16,22,25.90
2017,05,22,16,23,25.90
2017,05,22,16,24,25.90
2017,05,22,16,25,25.90
2017,05,22,16,26,26.10
2017,05,22,16,27,26.20
2017,05,22,16,28,26.20
2017,05,22,16,29,26.30
2017,05,22,16,30,26.20
2017,05,22,16,31,26.00
2017,05,22,16,32,26.00
2017,05,22,16,33,26.10
2017,05,22,16,34,26.10
2017,05,22,16,35,26.10
2017,05,22,16,36,26.20
2017,05,22,16,37,26.30
2017,05,22,16,38,26.20
2017,05,22,16,39,26.20
2017,05,22,16,40,26.10
2017,05,22,16,41,26.00
2017,05,22,16,42,25.90
2017,05,22,16,43,25.90
2017,05,22,16,44,25.90
2017,05,22,16,45,25.90
2017,05,22,16,46,25.90
2017,05,22,16,47,25.90
2017,05,22,16,48,25.90
2017,05,22,16,49,25.90
2017,05,22,16,50,25.80
2017,05,22,16,51,25.70
2017,05,22,16,52,25.50
2017,05,22,16,53,25.40
2017,05,22,16,54,25.20
2017,05,22,16,55,25.10
2017,05,22,16,56,25.10
2017,05,22,16,57,25.00
2017,05,22,16,58,24.90
2017,05,22,16,59,24.90
2017,05,22,17,00,25.00
2017,05,22,17,01,25.00
2017,05,22,17,02,25.10
2017,05,22,17,03,25.20
2017,05,22,17,04,25.30
2017,05,22,17,05,25.40
2017,05,22,17,06,25.50
2017,05,22,17,07,25.60
2017,05,22,17,08,25.50
2017,05,22,17,09,25.50
2017,05,22,17,10,25.50
2017,05,22,17,11,25.50
2017,05,22,17,12,25.50
2017,05,22,17,13,25.40
2017,05,22,17,14,25.30
2017,05,22,17,15,25.20
2017,05,22,17,16,25.10
2017,05,22,17,17,25.00
2017,05,22,17,18,24.80
2017,05,22,17,19,24.70